| time (UTC) | temp C | wind direction | speed KPH | gust KPH | rain 1hr cm | rain 24hr cm | rain mn cm | humidity % | barometer mb |
| 20260906205433 | 13 | 270 | 3.2 | 9.7 | 0.00 | 0.00 | 0.00 | 80 | 1046.9 |
| 20260906204933 | 13 | 270 | 9.7 | 12.9 | 0.00 | 0.00 | 0.00 | 79 | 1081.5 |
| 20260906204433 | 13 | 225 | 4.8 | 11.3 | 0.00 | 0.00 | 0.00 | 79 | 1059.5 |
| 20260906203933 | 13 | 225 | 6.4 | 11.3 | 0.00 | 0.00 | 0.00 | 79 | 1065.8 |
| 20260906203433 | 13 | 270 | 8.0 | 12.9 | 0.00 | 0.00 | 0.00 | 79 | 1067.4 |
| 20260906203032 | 13 | 225 | 6.4 | 12.9 | 0.00 | 0.00 | 0.00 | 78 | 1051.7 |
| 20260906202933 | 14 | 202 | 3.2 | 12.9 | 0.00 | 0.00 | 0.00 | 78 | 1054.5 |
| 20260906202433 | 14 | 202 | 8.0 | 14.5 | 0.00 | 0.00 | 0.00 | 78 | 1080.0 |
| 20260906201933 | 14 | 247 | 8.0 | 9.7 | 0.00 | 0.00 | 0.00 | 78 | 1034.1 |
| 20260906201433 | 14 | 270 | 4.8 | 16.1 | 0.00 | 0.00 | 0.00 | 77 | 1051.6 |
| 20260906200933 | 14 | 270 | 8.0 | 14.5 | 0.00 | 0.00 | 0.00 | 77 | 1072.0 |
| 20260906200433 | 15 | 247 | 6.4 | 14.5 | 0.00 | 0.00 | 0.00 | 77 | 1061.5 |
| 20260906195933 | 15 | 337 | 3.2 | 11.3 | 0.00 | 0.00 | 0.00 | 76 | 1058.0 |
| 20260906195732 | 15 | 247 | 8.0 | 11.3 | 0.00 | 0.00 | 0.00 | 76 | 1064.2 |
| 20260906195433 | 15 | 270 | 8.0 | 16.1 | 0.00 | 0.00 | 0.00 | 76 | 999.6 |
| 20260906194933 | 15 | 292 | 3.2 | 14.5 | 0.00 | 0.00 | 0.00 | 76 | 1016.2 |
| 20260906194433 | 15 | 270 | 12.9 | 14.5 | 0.00 | 0.00 | 0.00 | 75 | 1019.0 |
| 20260906193933 | 15 | 247 | 3.2 | 17.7 | 0.00 | 0.00 | 0.00 | 75 | 1084.6 |
| 20260906193433 | 15 | 270 | 11.3 | 17.7 | 0.00 | 0.00 | 0.00 | 75 | 1062.2 |
| 20260906192933 | 16 | 270 | 16.1 | 17.7 | 0.00 | 0.00 | 0.00 | 75 | 1072.1 |
| 20260906192432 | 16 | 270 | 4.8 | 22.5 | 0.00 | 0.00 | 0.00 | 75 | 1064.3 |
| 20260906191934 | 16 | 270 | 8.0 | 25.7 | 0.00 | 0.00 | 0.00 | 75 | 1034.3 |
| 20260906191433 | 16 | 247 | 11.3 | 20.9 | 0.00 | 0.00 | 0.00 | 75 | 1018.2 |
| 20260906190933 | 16 | 202 | 3.2 | 19.3 | 0.00 | 0.00 | 0.00 | 75 | 1051.6 |
| 20260906190434 | 16 | 270 | 3.2 | 19.3 | 0.00 | 0.00 | 0.00 | 75 | 1053.4 |
| 20260906185933 | 16 | 270 | 6.4 | 12.9 | 0.00 | 0.00 | 0.00 | 75 | 1033.3 |
| 20260906185433 | 16 | 270 | 9.7 | 16.1 | 0.00 | 0.00 | 0.00 | 75 | 1059.5 |
| 20260906185133 | 16 | 270 | 12.9 | 17.7 | 0.00 | 0.00 | 0.00 | 75 | 1067.7 |
| 20260906184933 | 16 | 270 | 11.3 | 17.7 | 0.00 | 0.00 | 0.00 | 75 | 1043.8 |
| 20260906184433 | 16 | 292 | 12.9 | 14.5 | 0.00 | 0.00 | 0.00 | 75 | 1059.6 |
| 20260906183934 | 16 | 270 | 9.7 | 12.9 | 0.00 | 0.00 | 0.00 | 75 | 1080.8 |
| 20260906183433 | 16 | 270 | 4.8 | 16.1 | 0.00 | 0.00 | 0.00 | 75 | 1034.3 |
| 20260906182934 | 16 | 270 | 6.4 | 19.3 | 0.00 | 0.00 | 0.00 | 75 | 1019.1 |
| 20260906182434 | 16 | 292 | 4.8 | 25.7 | 0.00 | 0.00 | 0.00 | 75 | 1026.2 |
| 20260906181934 | 16 | 225 | 20.9 | 20.9 | 0.00 | 0.00 | 0.00 | 75 | 1060.8 |
| 20260906181833 | 16 | 270 | 14.5 | 19.3 | 0.00 | 0.00 | 0.00 | 75 | 1059.2 |
| 20260906181434 | 16 | 292 | 6.4 | 19.3 | 0.00 | 0.00 | 0.00 | 75 | 1031.6 |
| 20260906180934 | 16 | 270 | 11.3 | 12.9 | 0.00 | 0.00 | 0.00 | 75 | 1054.8 |
| 20260906180434 | 16 | 247 | 3.2 | 12.9 | 0.00 | 0.00 | 0.00 | 75 | 1046.3 |
| 20260906175934 | 16 | 270 | 12.9 | 12.9 | 0.00 | 0.00 | 0.00 | 74 | 1061.1 |
| 20260906175434 | 16 | 270 | 12.9 | 12.9 | 0.00 | 0.00 | 0.00 | 74 | 1043.7 |
| 20260906174934 | 16 | 270 | 9.7 | 12.9 | 0.00 | 0.00 | 0.00 | 74 | 1014.2 |
| 20260906174533 | 16 | 225 | 6.4 | 12.9 | 0.00 | 0.00 | 0.00 | 74 | 1067.3 |
| 20260906174434 | 16 | 247 | 4.8 | 12.9 | 0.00 | 0.00 | 0.00 | 74 | 1064.2 |
| 20260906173934 | 16 | 247 | 8.0 | 14.5 | 0.00 | 0.00 | 0.00 | 74 | 1043.4 |
| 20260906173434 | 16 | 315 | 3.2 | 17.7 | 0.00 | 0.00 | 0.00 | 73 | 1064.3 |
| 20260906172934 | 16 | 247 | 4.8 | 12.9 | 0.00 | 0.00 | 0.00 | 73 | 1014.0 |
| 20260906172434 | 16 | 225 | 8.0 | 14.5 | 0.00 | 0.00 | 0.00 | 73 | 1057.2 |
| 20260906171934 | 16 | 202 | 3.2 | 14.5 | 0.00 | 0.00 | 0.00 | 73 | 1054.8 |
| 20260906171434 | 16 | 270 | 12.9 | 12.9 | 0.00 | 0.00 | 0.00 | 73 | 1046.2 |
| 20260906171233 | 16 | 247 | 4.8 | 12.9 | 0.00 | 0.00 | 0.00 | 72 | 1067.0 |
| 20260906170934 | 16 | 247 | 11.3 | 12.9 | 0.00 | 0.00 | 0.00 | 72 | 1039.1 |
| 20260906170434 | 16 | 270 | 12.9 | 22.5 | 0.00 | 0.00 | 0.00 | 72 | 1014.0 |
| 20260906165934 | 16 | 270 | 6.4 | 17.7 | 0.00 | 0.00 | 0.00 | 71 | 1049.2 |
| 20260906165434 | 17 | 270 | 12.9 | 19.3 | 0.00 | 0.00 | 0.00 | 70 | 1037.4 |
| 20260906164934 | 17 | 270 | 9.7 | 24.1 | 0.00 | 0.00 | 0.00 | 70 | 1018.3 |
| 20260906164434 | 17 | 270 | 8.0 | 19.3 | 0.00 | 0.00 | 0.00 | 70 | 1070.1 |
| 20260906163933 | 17 | 270 | 6.4 | 25.7 | 0.00 | 0.00 | 0.00 | 69 | 1022.1 |
| 20260906163434 | 18 | 292 | 14.5 | 29.0 | 0.00 | 0.00 | 0.00 | 69 | 1040.6 |
| 20260906162934 | 18 | 337 | 9.7 | 30.6 | 0.00 | 0.00 | 0.00 | 69 | 1068.9 |
| 20260906162434 | 18 | 270 | 9.7 | 24.1 | 0.00 | 0.00 | 0.00 | 69 | 1064.5 |
| 20260906161934 | 18 | 292 | 6.4 | 32.2 | 0.00 | 0.00 | 0.00 | 69 | 1053.3 |
| 20260906161434 | 18 | 180 | 9.7 | 33.8 | 0.00 | 0.00 | 0.00 | 69 | 1067.4 |
| 20260906160934 | 18 | 247 | 11.3 | 30.6 | 0.00 | 0.00 | 0.00 | 69 | 1019.3 |
| 20260906160633 | 18 | 270 | 12.9 | 27.4 | 0.00 | 0.00 | 0.00 | 69 | 1066.8 |
| 20260906160434 | 18 | 270 | 6.4 | 32.2 | 0.00 | 0.00 | 0.00 | 69 | 1022.5 |
| 20260906155934 | 18 | 270 | 17.7 | 27.4 | 0.00 | 0.00 | 0.00 | 68 | 1070.6 |
| 20260906155434 | 18 | 270 | 12.9 | 33.8 | 0.00 | 0.00 | 0.00 | 69 | 1058.0 |
| 20260906153434 | 17 | 270 | 11.3 | 29.0 | 0.00 | 0.00 | 0.00 | 71 | 1052.7 |
| 20260906153333 | 17 | 270 | 29.0 | 29.0 | 0.00 | 0.00 | 0.00 | 71 | 1049.4 |
| 20260906153041 | 17 | 292 | 14.5 | 30.6 | 0.00 | 0.00 | 0.00 | 71 | 1049.0 |
| 20260906152934 | 17 | 292 | 14.5 | 30.6 | 0.00 | 0.00 | 0.00 | 71 | 1049.0 |
| 20260906151934 | 18 | 247 | 16.1 | 25.7 | 0.00 | 0.00 | 0.00 | 70 | 1000.7 |
| 20260906151434 | 18 | 292 | 19.3 | 27.4 | 0.00 | 0.00 | 0.00 | 70 | 1040.6 |
| 20260906150434 | 18 | 270 | 12.9 | 29.0 | 0.00 | 0.00 | 0.00 | 71 | 1051.8 |
| 20260906150033 | 18 | 270 | 16.1 | 30.6 | 0.00 | 0.00 | 0.00 | 71 | 1010.8 |
| 20260906145934 | 18 | 247 | 14.5 | 30.6 | 0.00 | 0.00 | 0.00 | 71 | 1029.7 |
| 20260906145434 | 18 | 270 | 25.7 | 37.0 | 0.00 | 0.00 | 0.00 | 71 | 1054.4 |
| 20260906144934 | 18 | 292 | 19.3 | 33.8 | 0.00 | 0.00 | 0.00 | 71 | 1029.2 |
| 20260906144434 | 18 | 247 | 11.3 | 24.1 | 0.00 | 0.00 | 0.00 | 70 | 1062.0 |
| 20260906143934 | 18 | 270 | 6.4 | 25.7 | 0.00 | 0.00 | 0.00 | 68 | 1037.5 |
| 20260906143434 | 19 | 247 | 12.9 | 32.2 | 0.00 | 0.00 | 0.00 | 67 | 1046.9 |
| 20260906142934 | 19 | 270 | 27.4 | 37.0 | 0.00 | 0.00 | 0.00 | 64 | 1037.4 |
| 20260906142733 | 19 | 270 | 4.8 | 37.0 | 0.00 | 0.00 | 0.00 | 63 | 1021.6 |
| 20260906142434 | 20 | 247 | 24.1 | 27.4 | 0.00 | 0.00 | 0.00 | 63 | 1017.1 |
| 20260906141934 | 20 | 270 | 16.1 | 38.6 | 0.00 | 0.00 | 0.00 | 62 | 1037.5 |
| 20260906141434 | 20 | 270 | 27.4 | 27.4 | 0.00 | 0.00 | 0.00 | 61 | 1053.6 |
| 20260906140934 | 20 | 270 | 16.1 | 40.2 | 0.00 | 0.00 | 0.00 | 61 | 1050.1 |
| 20260906140434 | 20 | 270 | 19.3 | 27.4 | 0.00 | 0.00 | 0.00 | 60 | 1039.4 |
| 20260906135934 | 20 | 270 | 20.9 | 33.8 | 0.00 | 0.00 | 0.00 | 59 | 1048.8 |
| 20260906135433 | 20 | 270 | 14.5 | 27.4 | 0.00 | 0.00 | 0.00 | 60 | 1058.7 |
| 20260906134934 | 20 | 292 | 19.3 | 32.2 | 0.00 | 0.00 | 0.00 | 59 | 1046.9 |
| 20260906134434 | 20 | 292 | 9.7 | 33.8 | 0.00 | 0.00 | 0.00 | 60 | 1034.3 |
| 20260906133934 | 20 | 180 | 12.9 | 33.8 | 0.00 | 0.00 | 0.00 | 60 | 1050.1 |
| 20260906132934 | 20 | 270 | 43.5 | 45.1 | 0.00 | 0.00 | 0.00 | 61 | 1046.9 |
| 20260906132434 | 20 | 270 | 33.8 | 33.8 | 0.00 | 0.00 | 0.00 | 63 | 1024.8 |
| 20260906132133 | 20 | 247 | 16.1 | 37.0 | 0.00 | 0.00 | 0.00 | 62 | 1040.6 |
| 20260906131934 | 20 | 135 | 12.9 | 37.0 | 0.00 | 0.00 | 0.00 | 62 | 1035.9 |
| 20260906131434 | 20 | 247 | 25.7 | 32.2 | 0.00 | 0.00 | 0.00 | 62 | 1024.9 |
| 20260906130935 | 20 | 270 | 20.9 | 33.8 | 0.00 | 0.00 | 0.00 | 61 | 1053.2 |
| 20260906130434 | 20 | 292 | 17.7 | 30.6 | 0.00 | 0.00 | 0.00 | 62 | 1001.0 |
| 20260906125934 | 20 | 247 | 25.7 | 25.7 | 0.00 | 0.00 | 0.00 | 63 | 1046.9 |
| 20260906125434 | 19 | 247 | 20.9 | 33.8 | 0.00 | 0.00 | 0.00 | 64 | 1050.1 |
| 20260906124934 | 19 | 270 | 22.5 | 27.4 | 0.00 | 0.00 | 0.00 | 64 | 1037.5 |
| 20260906124833 | 19 | 270 | 14.5 | 27.4 | 0.00 | 0.00 | 0.00 | 64 | 1015.3 |
| 20260906124434 | 18 | 270 | 22.5 | 33.8 | 0.00 | 0.00 | 0.00 | 64 | 1037.5 |
| 20260906123934 | 18 | 270 | 16.1 | 37.0 | 0.00 | 0.00 | 0.00 | 64 | 1031.1 |
| 20260906123434 | 19 | 270 | 20.9 | 38.6 | 0.00 | 0.00 | 0.00 | 63 | 1015.4 |
| 20260906122934 | 20 | 270 | 24.1 | 46.7 | 0.00 | 0.00 | 0.00 | 61 | 1031.2 |
| 20260906122434 | 20 | 270 | 27.4 | 32.2 | 0.00 | 0.00 | 0.00 | 59 | 1031.2 |
| 20260906121934 | 20 | 180 | 20.9 | 33.8 | 0.00 | 0.00 | 0.00 | 56 | 1031.2 |
| 20260906121533 | 21 | 270 | 22.5 | 40.2 | 0.00 | 0.00 | 0.00 | 55 | 1028.0 |
| 20260906121434 | 21 | 292 | 22.5 | 40.2 | 0.00 | 0.00 | 0.00 | 55 | 1034.3 |
| 20260906120934 | 20 | 270 | 12.9 | 30.6 | 0.00 | 0.00 | 0.00 | 58 | 1018.6 |
| 20260906120434 | 20 | 270 | 17.7 | 37.0 | 0.00 | 0.00 | 0.00 | 59 | 1028.0 |
| 20260906115934 | 20 | 270 | 22.5 | 32.2 | 0.00 | 0.00 | 0.00 | 60 | 1012.2 |
| 20260906115434 | 19 | 292 | 20.9 | 32.2 | 0.00 | 0.00 | 0.00 | 63 | 1005.8 |
| 20260906114934 | 18 | 247 | 16.1 | 37.0 | 0.00 | 0.00 | 0.00 | 64 | 1005.8 |
| 20260906114434 | 18 | 270 | 37.0 | 37.0 | 0.00 | 0.00 | 0.00 | 64 | 1015.3 |
| 20260906114233 | 18 | 270 | 25.7 | 27.4 | 0.00 | 0.00 | 0.00 | 64 | 1005.8 |
| 20260906113934 | 18 | 247 | 12.9 | 32.2 | 0.00 | 0.00 | 0.00 | 63 | 980.5 |
| 20260906113435 | 18 | 315 | 32.2 | 33.8 | 0.00 | 0.00 | 0.00 | 61 | 990.0 |
| 20260906112934 | 19 | 270 | 33.8 | 33.8 | 0.00 | 0.00 | 0.00 | 59 | 1005.9 |
| 20260906112434 | 20 | 292 | 20.9 | 35.4 | 0.00 | 0.00 | 0.00 | 58 | 993.1 |
| 20260906111934 | 20 | 270 | 11.3 | 25.7 | 0.00 | 0.00 | 0.00 | 61 | 993.1 |
| 20260906111434 | 19 | 292 | 22.5 | 37.0 | 0.00 | 0.00 | 0.00 | 61 | 990.0 |
| 20260906110933 | 19 | 270 | 24.1 | 43.5 | 0.00 | 0.00 | 0.00 | 63 | 977.2 |
| 20260906110434 | 18 | 292 | 24.1 | 33.8 | 0.00 | 0.00 | 0.00 | 62 | 993.1 |
| 20260906105935 | 18 | 292 | 30.6 | 45.1 | 0.00 | 0.00 | 0.00 | 61 | 990.0 |
| 20260906105434 | 18 | 292 | 22.5 | 35.4 | 0.00 | 0.00 | 0.00 | 64 | 986.8 |
| 20260906104934 | 18 | 270 | 19.3 | 37.0 | 0.00 | 0.00 | 0.00 | 67 | 990.0 |
| 20260906104434 | 17 | 270 | 17.7 | 30.6 | 0.00 | 0.00 | 0.00 | 70 | 986.8 |
| 20260906103934 | 17 | 270 | 25.7 | 29.0 | 0.00 | 0.00 | 0.00 | 71 | 980.4 |
| 20260906103633 | 17 | 270 | 9.7 | 37.0 | 0.00 | 0.00 | 0.00 | 72 | 996.3 |
| 20260906103434 | 17 | 292 | 20.9 | 37.0 | 0.00 | 0.00 | 0.00 | 71 | 970.9 |
| 20260906102934 | 17 | 270 | 16.1 | 35.4 | 0.00 | 0.00 | 0.00 | 69 | 977.2 |
| 20260906102434 | 18 | 247 | 11.3 | 33.8 | 0.00 | 0.00 | 0.00 | 66 | 970.9 |
| 20260906101934 | 18 | 180 | 25.7 | 25.7 | 0.00 | 0.00 | 0.00 | 68 | 977.2 |
| 20260906101434 | 17 | 270 | 24.1 | 29.0 | 0.00 | 0.00 | 0.00 | 66 | 961.3 |
| 20260906100934 | 17 | 315 | 27.4 | 43.5 | 0.00 | 0.00 | 0.00 | 67 | 983.6 |
| 20260906100434 | 17 | 315 | 29.0 | 53.1 | 0.00 | 0.00 | 0.00 | 68 | 961.3 |
| 20260906100333 | 17 | 270 | 14.5 | 33.8 | 0.00 | 0.00 | 0.00 | 67 | 974.1 |
| 20260906095934 | 18 | 292 | 19.3 | 37.0 | 0.00 | 0.00 | 0.00 | 67 | 964.5 |
| 20260906095434 | 18 | 292 | 29.0 | 33.8 | 0.00 | 0.00 | 0.00 | 69 | 980.4 |
| 20260906094934 | 17 | 315 | 22.5 | 37.0 | 0.00 | 0.00 | 0.00 | 70 | 974.0 |
| 20260906094434 | 17 | 292 | 17.7 | 29.0 | 0.00 | 0.00 | 0.00 | 70 | 996.4 |
| 20260906093934 | 17 | 292 | 32.2 | 35.4 | 0.00 | 0.00 | 0.00 | 70 | 986.8 |
| 20260906093435 | 17 | 292 | 22.5 | 35.4 | 0.00 | 0.00 | 0.00 | 70 | 993.1 |
| 20260906093034 | 17 | 270 | 22.5 | 37.0 | 0.00 | 0.00 | 0.00 | 71 | 1009.0 |
| 20260906092935 | 17 | 270 | 32.2 | 37.0 | 0.00 | 0.00 | 0.00 | 70 | 999.5 |
| 20260906092434 | 17 | 270 | 24.1 | 37.0 | 0.00 | 0.00 | 0.00 | 72 | 983.6 |
| 20260906091934 | 17 | 247 | 24.1 | 29.0 | 0.00 | 0.00 | 0.00 | 72 | 993.2 |
| 20260906091435 | 17 | 270 | 24.1 | 37.0 | 0.00 | 0.00 | 0.00 | 73 | 999.5 |
| 20260906090935 | 16 | 315 | 11.3 | 30.6 | 0.00 | 0.00 | 0.00 | 75 | 1005.9 |
| 20260906090434 | 16 | 270 | 11.3 | 30.6 | 0.00 | 0.00 | 0.00 | 75 | 999.5 |
| 20260906085935 | 16 | 292 | 12.9 | 24.1 | 0.00 | 0.00 | 0.00 | 77 | 1021.7 |
| 20260906085734 | 16 | 270 | 24.1 | 35.4 | 0.00 | 0.00 | 0.00 | 77 | 999.5 |
| 20260906085435 | 16 | 292 | 11.3 | 35.4 | 0.00 | 0.00 | 0.00 | 77 | 1002.7 |
| 20260906084935 | 16 | 270 | 12.9 | 24.1 | 0.00 | 0.00 | 0.00 | 78 | 996.3 |
| 20260906084435 | 15 | 270 | 14.5 | 33.8 | 0.00 | 0.00 | 0.00 | 80 | 1021.7 |
| 20260906083435 | 15 | 270 | 9.7 | 29.0 | 0.00 | 0.00 | 0.00 | 82 | 1024.9 |
| 20260906082935 | 15 | 270 | 16.1 | 35.4 | 0.00 | 0.00 | 0.00 | 82 | 1058.8 |
| 20260906082434 | 14 | 270 | 4.8 | 24.1 | 0.00 | 0.00 | 0.00 | 82 | 1064.8 |
| 20260906081935 | 15 | 270 | 17.7 | 30.6 | 0.00 | 0.00 | 0.00 | 82 | 1040.6 |
| 20260906081435 | 14 | 270 | 9.7 | 30.6 | 0.00 | 0.00 | 0.00 | 83 | 1034.3 |
| 20260906080935 | 14 | 270 | 11.3 | 30.6 | 0.00 | 0.00 | 0.00 | 84 | 1034.3 |
| 20260906080435 | 14 | 292 | 17.7 | 30.6 | 0.00 | 0.00 | 0.00 | 85 | 1028.0 |
| 20260906075935 | 13 | 292 | 20.9 | 24.1 | 0.00 | 0.00 | 0.00 | 84 | 1034.3 |
| 20260906075435 | 13 | 270 | 12.9 | 27.4 | 0.00 | 0.00 | 0.00 | 84 | 1060.5 |
| 20260906075134 | 13 | 292 | 12.9 | 32.2 | 0.00 | 0.00 | 0.00 | 83 | 1034.3 |
| 20260906074935 | 13 | 270 | 12.9 | 32.2 | 0.00 | 0.00 | 0.00 | 83 | 1050.1 |
| 20260906074436 | 14 | 270 | 12.9 | 29.0 | 0.00 | 0.00 | 0.00 | 82 | 1028.0 |
| 20260906073935 | 14 | 247 | 17.7 | 33.8 | 0.00 | 0.00 | 0.00 | 81 | 1036.1 |
| 20260906073435 | 14 | 270 | 17.7 | 45.1 | 0.00 | 0.00 | 0.00 | 79 | 1054.4 |
| 20260906072935 | 15 | 270 | 40.2 | 40.2 | 0.00 | 0.00 | 0.00 | 76 | 1018.5 |
| 20260906072435 | 15 | 292 | 9.7 | 33.8 | 0.00 | 0.00 | 0.00 | 77 | 1039.2 |
| 20260906071935 | 15 | 157 | 6.4 | 30.6 | 0.00 | 0.00 | 0.00 | 78 | 1053.2 |
| 20260906071834 | 15 | 225 | 12.9 | 30.6 | 0.00 | 0.00 | 0.00 | 78 | 1031.1 |
| 20260906071436 | 15 | 292 | 19.3 | 35.4 | 0.00 | 0.00 | 0.00 | 77 | 1024.8 |
| 20260906071050 | 15 | 270 | 14.5 | 27.4 | 0.00 | 0.00 | 0.00 | 76 | 1049.6 |
| 20260906070935 | 15 | 270 | 14.5 | 27.4 | 0.00 | 0.00 | 0.00 | 76 | 1049.6 |
| 20260906070435 | 15 | 247 | 29.0 | 30.6 | 0.00 | 0.00 | 0.00 | 76 | 1040.6 |
| 20260906065935 | 15 | 270 | 29.0 | 30.6 | 0.00 | 0.00 | 0.00 | 77 | 1062.3 |
| 20260906065435 | 15 | 247 | 27.4 | 32.2 | 0.00 | 0.00 | 0.00 | 77 | 1028.0 |
| 20260906064935 | 15 | 247 | 8.0 | 27.4 | 0.00 | 0.00 | 0.00 | 77 | 1029.4 |
| 20260906064534 | 14 | 247 | 11.3 | 35.4 | 0.00 | 0.00 | 0.00 | 77 | 1037.5 |
| 20260906064435 | 14 | 270 | 16.1 | 35.4 | 0.00 | 0.00 | 0.00 | 77 | 1034.3 |
| 20260906063935 | 14 | 270 | 27.4 | 48.3 | 0.00 | 0.00 | 0.00 | 77 | 1040.6 |
| 20260906063435 | 15 | 247 | 12.9 | 33.8 | 0.00 | 0.00 | 0.00 | 76 | 1037.5 |
| 20260906062935 | 15 | 270 | 19.3 | 41.8 | 0.00 | 0.00 | 0.00 | 75 | 1037.4 |
| 20260906062435 | 15 | 247 | 33.8 | 38.6 | 0.00 | 0.00 | 0.00 | 74 | 1034.3 |
| 20260906061935 | 15 | 292 | 20.9 | 33.8 | 0.00 | 0.00 | 0.00 | 74 | 1028.0 |
| 20260906061435 | 15 | 270 | 19.3 | 22.5 | 0.00 | 0.00 | 0.00 | 76 | 1021.7 |
| 20260906061234 | 15 | 225 | 12.9 | 24.1 | 0.00 | 0.00 | 0.00 | 76 | 1031.2 |
| 20260906060935 | 15 | 270 | 12.9 | 30.6 | 0.00 | 0.00 | 0.00 | 75 | 1046.9 |
| 20260906060435 | 15 | 247 | 17.7 | 35.4 | 0.00 | 0.00 | 0.00 | 75 | 1013.6 |
| 20260906055935 | 14 | 270 | 19.3 | 45.1 | 0.00 | 0.00 | 0.00 | 75 | 1034.3 |
| 20260906055435 | 14 | 270 | 37.0 | 41.8 | 0.00 | 0.00 | 0.00 | 76 | 1034.3 |
| 20260906054935 | 14 | 315 | 9.7 | 45.1 | 0.00 | 0.00 | 0.00 | 76 | 1037.5 |
| 20260906054435 | 14 | 270 | 24.1 | 30.6 | 0.00 | 0.00 | 0.00 | 77 | 1018.5 |
| 20260906053934 | 14 | 247 | 30.6 | 33.8 | 0.00 | 0.00 | 0.00 | 77 | 1032.3 |
| 20260906053435 | 14 | 270 | 32.2 | 32.2 | 0.00 | 0.00 | 0.00 | 77 | 1032.4 |
| 20260906052935 | 14 | 247 | 17.7 | 37.0 | 0.00 | 0.00 | 0.00 | 77 | 1009.0 |
| 20260906052435 | 14 | 270 | 16.1 | 32.2 | 0.00 | 0.00 | 0.00 | 77 | 1015.3 |
| 20260906051935 | 14 | 270 | 25.7 | 30.6 | 0.00 | 0.00 | 0.00 | 78 | 1046.9 |
| 20260906051435 | 14 | 270 | 29.0 | 33.8 | 0.00 | 0.00 | 0.00 | 78 | 1040.6 |
| 20260906050935 | 14 | 270 | 33.8 | 41.8 | 0.00 | 0.00 | 0.00 | 78 | 1031.2 |
| 20260906050634 | 13 | 225 | 17.7 | 33.8 | 0.00 | 0.00 | 0.00 | 78 | 1060.6 |
| 20260906050435 | 14 | 270 | 6.4 | 40.2 | 0.00 | 0.00 | 0.00 | 78 | 1028.0 |
| 20260906045935 | 14 | 225 | 27.4 | 30.6 | 0.00 | 0.00 | 0.00 | 78 | 1040.6 |
| 20260906045435 | 14 | 270 | 29.0 | 40.2 | 0.00 | 0.00 | 0.00 | 79 | 1031.1 |
| 20260906044935 | 14 | 247 | 16.1 | 29.0 | 0.00 | 0.00 | 0.00 | 79 | 1037.3 |
| 20260906044435 | 13 | 270 | 20.9 | 32.2 | 0.00 | 0.00 | 0.00 | 79 | 1037.3 |
| 20260906043935 | 13 | 270 | 24.1 | 29.0 | 0.00 | 0.00 | 0.00 | 79 | 1032.9 |
| 20260906043435 | 13 | 270 | 27.4 | 41.8 | 0.00 | 0.00 | 0.00 | 79 | 1012.2 |
| 20260906043334 | 13 | 247 | 20.9 | 41.8 | 0.00 | 0.00 | 0.00 | 79 | 1038.0 |
| 20260906042935 | 13 | 247 | 8.0 | 30.6 | 0.00 | 0.00 | 0.00 | 79 | 1021.7 |
| 20260906042435 | 13 | 247 | 9.7 | 27.4 | 0.00 | 0.00 | 0.00 | 79 | 1037.4 |
| 20260906041935 | 13 | 90 | 8.0 | 27.4 | 0.00 | 0.00 | 0.00 | 80 | 1045.5 |
| 20260906041435 | 13 | 270 | 16.1 | 27.4 | 0.00 | 0.00 | 0.00 | 80 | 1040.6 |
| 20260906040935 | 13 | 225 | 9.7 | 33.8 | 0.00 | 0.00 | 0.00 | 80 | 1075.5 |
| 20260906040435 | 13 | 270 | 22.5 | 30.6 | 0.00 | 0.00 | 0.00 | 80 | 1031.2 |
| 20260906040034 | 13 | 270 | 17.7 | 33.8 | 0.00 | 0.00 | 0.00 | 80 | 991.6 |
| 20260906035935 | 13 | 270 | 27.4 | 33.8 | 0.00 | 0.00 | 0.00 | 80 | 1037.5 |
| 20260906035435 | 13 | 270 | 25.7 | 30.6 | 0.00 | 0.00 | 0.00 | 80 | 1070.9 |
| 20260906034935 | 13 | 247 | 19.3 | 27.4 | 0.00 | 0.00 | 0.00 | 80 | 1050.3 |
| 20260906034435 | 13 | 270 | 22.5 | 43.5 | 0.00 | 0.00 | 0.00 | 80 | 1011.4 |
| 20260906033935 | 13 | 292 | 29.0 | 37.0 | 0.00 | 0.00 | 0.00 | 81 | 1064.4 |
| 20260906033435 | 13 | 292 | 9.7 | 32.2 | 0.00 | 0.00 | 0.00 | 81 | 1042.1 |
| 20260906032935 | 13 | 270 | 17.7 | 27.4 | 0.00 | 0.00 | 0.00 | 81 | 1002.4 |
| 20260906032734 | 13 | 270 | 12.9 | 27.4 | 0.00 | 0.00 | 0.00 | 81 | 1053.4 |
| 20260906032435 | 13 | 270 | 16.1 | 38.6 | 0.00 | 0.00 | 0.00 | 81 | 1057.2 |
| 20260906031935 | 13 | 270 | 24.1 | 40.2 | 0.00 | 0.00 | 0.00 | 81 | 1040.8 |
| 20260906031435 | 13 | 270 | 16.1 | 30.6 | 0.00 | 0.00 | 0.00 | 81 | 1045.7 |
| 20260906030935 | 13 | 247 | 9.7 | 29.0 | 0.00 | 0.00 | 0.00 | 81 | 1060.4 |
| 20260906030435 | 13 | 270 | 19.3 | 27.4 | 0.00 | 0.00 | 0.00 | 81 | 1061.3 |
| 20260906025935 | 13 | 270 | 16.1 | 27.4 | 0.00 | 0.05 | 0.00 | 81 | 1046.4 |
| 20260906025434 | 13 | 270 | 17.7 | 24.1 | 0.00 | 0.05 | 0.00 | 81 | 1055.6 |
| 20260906024935 | 13 | 270 | 12.9 | 29.0 | 0.00 | 0.05 | 0.00 | 81 | 1039.0 |
| 20260906024435 | 13 | 292 | 16.1 | 33.8 | 0.00 | 0.05 | 0.00 | 81 | 1075.2 |
| 20260906023935 | 13 | 202 | 9.7 | 33.8 | 0.00 | 0.05 | 0.00 | 81 | 1057.9 |
| 20260906023435 | 13 | 225 | 16.1 | 30.6 | 0.00 | 0.05 | 0.00 | 81 | 1068.4 |
| 20260906022935 | 13 | 247 | 9.7 | 30.6 | 0.00 | 0.05 | 0.00 | 81 | 1085.0 |
| 20260906022435 | 14 | 270 | 29.0 | 30.6 | 0.00 | 0.05 | 0.00 | 81 | 1047.0 |
| 20260906022134 | 14 | 270 | 30.6 | 30.6 | 0.00 | 0.05 | 0.00 | 81 | 1022.1 |
| 20260906021935 | 14 | 292 | 22.5 | 33.8 | 0.00 | 0.05 | 0.00 | 81 | 1074.9 |
| 20260906021435 | 14 | 225 | 12.9 | 32.2 | 0.00 | 0.05 | 0.00 | 81 | 1062.3 |
| 20260906020935 | 13 | 270 | 4.8 | 32.2 | 0.00 | 0.05 | 0.00 | 81 | 1053.8 |
| 20260906020435 | 13 | 270 | 24.1 | 30.6 | 0.00 | 0.05 | 0.00 | 81 | 1053.0 |
| 20260906015935 | 14 | 292 | 3.2 | 22.5 | 0.00 | 0.05 | 0.00 | 81 | 1043.7 |
| 20260906015435 | 14 | 270 | 22.5 | 30.6 | 0.00 | 0.05 | 0.00 | 81 | 1034.3 |
| 20260906014935 | 13 | 202 | 30.6 | 37.0 | 0.00 | 0.05 | 0.00 | 82 | 1061.9 |
| 20260906014834 | 14 | 292 | 19.3 | 32.2 | 0.00 | 0.05 | 0.00 | 82 | 1067.4 |
| 20260906014435 | 14 | 247 | 32.2 | 32.2 | 0.00 | 0.05 | 0.00 | 82 | 1063.9 |
| 20260906013935 | 14 | 270 | 20.9 | 22.5 | 0.00 | 0.05 | 0.00 | 82 | 1050.6 |
| 20260906013435 | 14 | 270 | 9.7 | 30.6 | 0.00 | 0.05 | 0.00 | 82 | 1063.1 |
| 20260906012935 | 14 | 270 | 30.6 | 30.6 | 0.00 | 0.05 | 0.00 | 82 | 1033.8 |
| 20260906012435 | 14 | 270 | 11.3 | 24.1 | 0.00 | 0.05 | 0.00 | 82 | 1043.8 |
| 20260906011935 | 14 | 292 | 17.7 | 27.4 | 0.00 | 0.05 | 0.00 | 82 | 1060.4 |
| 20260906011534 | 14 | 270 | 27.4 | 27.4 | 0.00 | 0.05 | 0.00 | 82 | 1053.7 |
| 20260906011435 | 14 | 247 | 17.7 | 22.5 | 0.00 | 0.05 | 0.00 | 82 | 1062.3 |
| 20260906010935 | 14 | 292 | 14.5 | 22.5 | 0.00 | 0.05 | 0.00 | 82 | 1031.9 |
| 20260906010435 | 14 | 247 | 19.3 | 19.3 | 0.00 | 0.05 | 0.00 | 82 | 1062.4 |
| 20260906005935 | 14 | 225 | 19.3 | 27.4 | 0.00 | 0.05 | 0.00 | 82 | 1028.8 |
| 20260906005436 | 14 | 225 | 16.1 | 24.1 | 0.00 | 0.05 | 0.00 | 82 | 1061.4 |
| 20260906004935 | 14 | 247 | 11.3 | 24.1 | 0.00 | 0.05 | 0.00 | 82 | 1061.1 |
| 20260906004435 | 14 | 247 | 19.3 | 24.1 | 0.00 | 0.05 | 0.00 | 82 | 1061.3 |
| 20260906004234 | 13 | 225 | 17.7 | 24.1 | 0.00 | 0.05 | 0.00 | 82 | 1052.6 |
| 20260906003935 | 13 | 270 | 17.7 | 24.1 | 0.00 | 0.05 | 0.00 | 83 | 1055.0 |
| 20260906003436 | 13 | 292 | 19.3 | 20.9 | 0.00 | 0.05 | 0.00 | 83 | 1043.8 |
| 20260906002935 | 13 | 225 | 12.9 | 25.7 | 0.00 | 0.05 | 0.00 | 83 | 1056.4 |
| 20260906002436 | 13 | 270 | 19.3 | 22.5 | 0.00 | 0.05 | 0.00 | 83 | 1062.2 |
| 20260906001935 | 13 | 270 | 4.8 | 17.7 | 0.00 | 0.05 | 0.00 | 83 | 1066.4 |
| 20260906001435 | 13 | 270 | 6.4 | 16.1 | 0.00 | 0.05 | 0.00 | 83 | 1074.0 |
| 20260906000934 | 13 | 270 | 6.4 | 22.5 | 0.00 | 0.05 | 0.00 | 82 | 1031.1 |
| 20260906000435 | 13 | 270 | 9.7 | 19.3 | 0.00 | 0.05 | 0.00 | 82 | 1046.9 |
| 20260905235935 | 13 | 292 | 16.1 | 27.4 | 0.00 | 0.05 | 0.00 | 82 | 1077.6 |
| 20260905235435 | 13 | 270 | 17.7 | 22.5 | 0.00 | 0.05 | 0.00 | 82 | 1032.2 |
| 20260905234936 | 13 | 202 | 8.0 | 25.7 | 0.00 | 0.05 | 0.00 | 82 | 1053.2 |
| 20260905234436 | 13 | 270 | 9.7 | 29.0 | 0.00 | 0.05 | 0.00 | 82 | 1057.5 |
| 20260905233936 | 13 | 202 | 9.7 | 25.7 | 0.00 | 0.05 | 0.00 | 82 | 1014.2 |
| 20260905233635 | 13 | 202 | 14.5 | 25.7 | 0.00 | 0.05 | 0.00 | 82 | 1034.0 |
| 20260905233435 | 13 | 247 | 9.7 | 20.9 | 0.00 | 0.05 | 0.00 | 82 | 1089.4 |
| 20260905232936 | 13 | 270 | 14.5 | 29.0 | 0.00 | 0.05 | 0.00 | 82 | 1031.2 |
| 20260905232436 | 13 | 270 | 11.3 | 25.7 | 0.00 | 0.05 | 0.00 | 82 | 1069.0 |
| 20260905231936 | 13 | 270 | 17.7 | 20.9 | 0.00 | 0.05 | 0.00 | 82 | 1062.6 |
| 20260905231436 | 13 | 247 | 12.9 | 22.5 | 0.00 | 0.05 | 0.00 | 82 | 1046.9 |
| 20260905230936 | 13 | 292 | 8.0 | 24.1 | 0.00 | 0.05 | 0.00 | 83 | 1061.1 |
| 20260905230436 | 13 | 270 | 12.9 | 27.4 | 0.00 | 0.05 | 0.00 | 83 | 1068.2 |
| 20260905230335 | 13 | 270 | 17.7 | 27.4 | 0.00 | 0.05 | 0.00 | 83 | 1059.2 |
| 20260905225936 | 13 | 247 | 8.0 | 22.5 | 0.00 | 0.05 | 0.00 | 83 | 1048.5 |
| 20260905225436 | 13 | 270 | 8.0 | 25.7 | 0.00 | 0.05 | 0.00 | 83 | 1067.4 |
| 20260905224936 | 13 | 225 | 6.4 | 20.9 | 0.00 | 0.05 | 0.00 | 83 | 1078.4 |
| 20260905224436 | 13 | 247 | 12.9 | 20.9 | 0.00 | 0.05 | 0.00 | 83 | 1063.8 |
| 20260905223936 | 13 | 292 | 6.4 | 29.0 | 0.00 | 0.05 | 0.00 | 83 | 1023.0 |
| 20260905223436 | 13 | 202 | 14.5 | 25.7 | 0.00 | 0.05 | 0.00 | 83 | 1053.3 |
| 20260905223035 | 13 | 247 | 6.4 | 29.0 | 0.00 | 0.05 | 0.00 | 83 | 1039.6 |
| 20260905222936 | 13 | 270 | 3.2 | 29.0 | 0.00 | 0.05 | 0.00 | 83 | 1060.3 |
| 20260905222436 | 13 | 270 | 19.3 | 32.2 | 0.00 | 0.05 | 0.00 | 83 | 1047.8 |
| 20260905221936 | 13 | 270 | 11.3 | 27.4 | 0.00 | 0.05 | 0.00 | 83 | 1071.8 |
| 20260905221436 | 13 | 270 | 9.7 | 20.9 | 0.00 | 0.05 | 0.00 | 83 | 1049.7 |
| 20260905220936 | 13 | 270 | 17.7 | 22.5 | 0.00 | 0.05 | 0.00 | 83 | 1038.2 |
| 20260905220436 | 13 | 225 | 16.1 | 30.6 | 0.00 | 0.05 | 0.00 | 83 | 1062.1 |
| 20260905215936 | 13 | 225 | 17.7 | 35.4 | 0.00 | 0.05 | 0.00 | 83 | 1061.8 |
| 20260905215735 | 13 | 270 | 35.4 | 37.0 | 0.00 | 0.05 | 0.00 | 83 | 1042.1 |
| 20260905215436 | 13 | 247 | 17.7 | 37.0 | 0.00 | 0.05 | 0.00 | 83 | 1074.9 |
| 20260905214936 | 13 | 292 | 20.9 | 24.1 | 0.00 | 0.05 | 0.00 | 82 | 1052.9 |
| 20260905214436 | 13 | 270 | 16.1 | 25.7 | 0.00 | 0.05 | 0.00 | 82 | 1052.3 |
| 20260905213936 | 13 | 202 | 12.9 | 35.4 | 0.00 | 0.05 | 0.00 | 82 | 1059.5 |
| 20260905213436 | 13 | 202 | 6.4 | 30.6 | 0.00 | 0.05 | 0.00 | 82 | 1039.4 |
| 20260905212936 | 13 | 270 | 11.3 | 29.0 | 0.00 | 0.05 | 0.00 | 82 | 1068.6 |
| 20260905212435 | 13 | 292 | 6.4 | 17.7 | 0.00 | 0.05 | 0.00 | 82 | 1059.5 |
| 20260905211936 | 13 | 292 | 8.0 | 17.7 | 0.00 | 0.05 | 0.00 | 82 | 1028.7 |
| 20260905211436 | 13 | 292 | 12.9 | 24.1 | 0.00 | 0.05 | 0.00 | 82 | 1036.6 |
| 20260905210936 | 13 | 225 | 14.5 | 24.1 | 0.00 | 0.05 | 0.00 | 82 | 1058.8 |
| 20260905210436 | 13 | 225 | 16.1 | 20.9 | 0.00 | 0.05 | 0.00 | 82 | 1025.6 |
| 20260905205936 | 13 | 202 | 19.3 | 22.5 | 0.00 | 0.05 | 0.00 | 82 | 1061.1 |